Weather History for Liberal, KS

Change the Weather History Date:

Saturday, May 18, 2013

  Actual Average Record
Temperature  
Mean Temperature 82 °F -  
Max Temperature 100 °F 83 °F 100 °F (1956)
Min Temperature 64 °F 52 °F 40 °F (1986)
Cooling Degree Days 17    
Growing Degree Days 32 (Base 50)    
Moisture  
Dew Point 49 °F    
Average Humidity 48    
Maximum Humidity 88    
Minimum Humidity 11    
Precipitation  
Precipitation 0.00 in - - ()
Sea Level Pressure  
Sea Level Pressure 29.74 in    
Wind  
Wind Speed 13 mph (South)    
Max Wind Speed 29 mph    
Max Gust Speed 37 mph    
Visibility 7 miles    
Events      
Averages and records for this station are not official NWS values.
T = Trace of Precipitation, MM = Missing Value Source: NWS Daily Summary

Daily Weather History Graph

Daily Weather History Graph

Search for Another Location

Airport:

Trip Planner

Search our weather history database for the weather conditions in past years. The results will help you decide how hot, cold, wet, or windy it might be!

Date:

Astronomy

May. 18, 2013 Rise Set
Actual Time 6:33 AM CDT 8:47 PM CDT
Civil Twilight 6:03 AM CDT 9:17 PM CDT
Nautical Twilight 5:27 AM CDT 9:53 PM CDT
Astronomical Twilight 4:48 AM CDT 10:32 PM CDT
Moon 2:02 PM CDT (5/18) 2:16 AM CDT (5/18)
Length of Visible Light 15h 13m
Length of Day
14h 14m
First Quarter, 55% of the Moon is Illuminated
May 18
First Quarter
May 24
Full
May 31
Last Quarter
Jun 8
New
Jun 16
First Quarter

Hourly Weather History & Observations

Time (CDT) Temp. Heat Index Dew Point Humidity Pressure Visibility Wind Dir Wind Speed Gust Speed Precip Events Conditions
12:15 AM 69.8 °F - 62.6 °F 78% 29.86 in 7.0 mi SSE 13.8 mph - N/A   Overcast
12:35 AM 69.8 °F - 62.6 °F 78% 29.86 in 7.0 mi SSE 12.7 mph - N/A   Overcast
12:55 AM 71.6 °F - 64.4 °F 78% 29.85 in 7.0 mi SSE 11.5 mph - N/A   Overcast
1:15 AM 71.6 °F - 64.4 °F 78% 29.85 in 7.0 mi SSE 16.1 mph - N/A   Overcast
1:35 AM 71.6 °F - 64.4 °F 78% 29.85 in 7.0 mi SSE 11.5 mph - N/A   Overcast
1:55 AM 71.6 °F - 64.4 °F 78% 29.84 in 6.0 mi SE 8.1 mph - N/A   Overcast
2:15 AM 71.6 °F - 64.4 °F 78% 29.83 in 5.0 mi SE 8.1 mph - N/A   Scattered Clouds
2:35 AM 69.8 °F - 64.4 °F 83% 29.82 in 5.0 mi SE 8.1 mph - N/A   Clear
2:55 AM 69.8 °F - 62.6 °F 78% 29.81 in 5.0 mi SE 9.2 mph - N/A   Clear
3:15 AM 69.8 °F - 62.6 °F 78% 29.81 in 5.0 mi SE 10.4 mph - N/A   Clear
3:35 AM 68.0 °F - 62.6 °F 83% 29.81 in 5.0 mi SSE 11.5 mph - N/A   Clear
3:55 AM 66.2 °F - 62.6 °F 88% 29.83 in 4.0 mi SW 4.6 mph - N/A   Clear
4:15 AM 66.2 °F - 60.8 °F 83% 29.81 in 3.0 mi SE 8.1 mph - N/A   Clear
4:35 AM 66.2 °F - 62.6 °F 88% 29.80 in 5.0 mi ESE 9.2 mph - N/A   Clear
4:55 AM 66.2 °F - 60.8 °F 83% 29.81 in 3.0 mi SE 9.2 mph - N/A   Clear
5:15 AM 66.2 °F - 60.8 °F 83% 29.81 in 2.5 mi ESE 9.2 mph - N/A   Clear
5:35 AM 66.2 °F - 60.8 °F 83% 29.81 in 2.5 mi SE 8.1 mph - N/A   Clear
5:55 AM 66.2 °F - 60.8 °F 83% 29.80 in 2.5 mi SE 9.2 mph - N/A   Clear
6:15 AM 64.4 °F - 60.8 °F 88% 29.79 in 1.8 mi SE 9.2 mph - N/A   Clear
6:35 AM 64.4 °F - 60.8 °F 88% 29.81 in 1.2 mi SSE 9.2 mph - N/A   Clear
6:55 AM 64.4 °F - 60.8 °F 88% 29.80 in 1.2 mi SSE 6.9 mph - N/A   Clear
7:15 AM 64.4 °F - 60.8 °F 88% 29.80 in 1.2 mi SE 8.1 mph - N/A   Clear
7:35 AM 64.4 °F - 60.8 °F 88% 29.81 in 1.2 mi SE 10.4 mph - N/A   Clear
7:55 AM 66.2 °F - 62.6 °F 88% 29.80 in 1.5 mi SE 11.5 mph - N/A   Clear
8:15 AM 66.2 °F - 62.6 °F 88% 29.81 in 1.0 mi SE 11.5 mph - N/A   Mostly Cloudy
8:35 AM 66.2 °F - 62.6 °F 88% 29.81 in 1.8 mi SE 10.4 mph - N/A   Mostly Cloudy
8:55 AM 69.8 °F - 64.4 °F 83% 29.80 in 3.0 mi ESE 9.2 mph - N/A   Clear
9:15 AM 69.8 °F - 64.4 °F 83% 29.81 in 5.0 mi SE 9.2 mph - N/A   Clear
9:35 AM 69.8 °F - 64.4 °F 83% 29.81 in 5.0 mi ESE 8.1 mph - N/A   Clear
9:55 AM 71.6 °F - 66.2 °F 83% 29.82 in 5.0 mi ESE 12.7 mph - N/A   Clear
10:15 AM 75.2 °F - 66.2 °F 73% 29.82 in 7.0 mi ESE 11.5 mph - N/A   Clear
10:35 AM 77.0 °F - 68.0 °F 74% 29.81 in 9.0 mi SE 10.4 mph - N/A   Clear
10:55 AM 80.6 °F 83.2 °F 68.0 °F 65% 29.80 in 10.0 mi ESE 9.2 mph - N/A   Clear
11:15 AM 82.4 °F 85.4 °F 68.0 °F 62% 29.79 in 10.0 mi South 9.2 mph - N/A   Clear
11:35 AM 89.6 °F 91.1 °F 64.4 °F 43% 29.78 in 10.0 mi South 16.1 mph 24.2 mph N/A   Clear
11:55 AM 91.4 °F 91.4 °F 60.8 °F 36% 29.77 in 10.0 mi South 23.0 mph - N/A   Clear
12:15 PM 93.2 °F 91.3 °F 55.4 °F 28% 29.76 in 10.0 mi SSW 19.6 mph 26.5 mph N/A   Clear
12:35 PM 93.2 °F 90.8 °F 53.6 °F 26% 29.75 in 10.0 mi SSW 20.7 mph - N/A   Clear
12:55 PM 95.0 °F - 51.8 °F 23% 29.74 in 10.0 mi South 19.6 mph 32.2 mph N/A   Clear
1:15 PM 96.8 °F - 50.0 °F 20% 29.73 in 10.0 mi SSW 16.1 mph 27.6 mph N/A   Clear
1:35 PM 96.8 °F - 46.4 °F 18% 29.71 in 10.0 mi South 17.3 mph 23.0 mph N/A   Clear
2:15 PM 98.6 °F - 42.8 °F 15% 29.70 in 10.0 mi SW 26.5 mph 32.2 mph N/A   Clear
2:35 PM 100.4 °F - 39.2 °F 12% 29.69 in 10.0 mi SW 24.2 mph 32.2 mph N/A   Clear
2:55 PM 100.4 °F - 37.4 °F 11% 29.68 in 10.0 mi SW 26.5 mph 31.1 mph N/A   Clear
3:15 PM 98.6 °F - 35.6 °F 11% 29.68 in 10.0 mi SW 27.6 mph 36.8 mph N/A   Clear
3:35 PM 96.8 °F - 33.8 °F 11% 29.68 in 10.0 mi WSW 26.5 mph 31.1 mph N/A   Clear
3:55 PM 96.8 °F - 33.8 °F 11% 29.67 in 10.0 mi SW 21.9 mph 32.2 mph N/A   Partly Cloudy
4:15 PM 96.8 °F - 33.8 °F 11% 29.67 in 10.0 mi SW 23.0 mph 31.1 mph N/A   Clear
4:35 PM 96.8 °F - 33.8 °F 11% 29.66 in 10.0 mi SSW 27.6 mph 34.5 mph N/A   Clear
5:15 PM 93.2 °F - 32.0 °F 11% 29.66 in 10.0 mi South 25.3 mph 33.4 mph N/A   Clear
5:35 PM 93.2 °F - 32.0 °F 11% 29.65 in 10.0 mi South 26.5 mph 33.4 mph N/A   Clear
5:55 PM 96.8 °F - 33.8 °F 11% 29.63 in 10.0 mi South 28.8 mph 36.8 mph N/A   Clear
6:15 PM 95.0 °F - 33.8 °F 12% 29.61 in 10.0 mi SSW 20.7 mph 27.6 mph N/A   Clear
6:35 PM 96.8 °F - 33.8 °F 11% 29.60 in 10.0 mi SSW 18.4 mph 25.3 mph N/A   Clear
6:55 PM 96.8 °F - 33.8 °F 11% 29.60 in 10.0 mi SW 23.0 mph 26.5 mph N/A   Clear
7:15 PM 96.8 °F - 33.8 °F 11% 29.60 in 10.0 mi SW 24.2 mph 28.8 mph N/A   Clear
7:35 PM 93.2 °F - 32.0 °F 11% 29.59 in 10.0 mi SW 15.0 mph 25.3 mph N/A   Clear
7:55 PM 93.2 °F - 30.2 °F 11% 29.59 in 10.0 mi SW 19.6 mph - N/A   Clear
8:15 PM 89.6 °F - 28.4 °F 11% 29.59 in 10.0 mi WSW 15.0 mph - N/A   Clear
8:35 PM 86.0 °F - 26.6 °F 12% 29.59 in 10.0 mi WSW 15.0 mph - N/A   Clear
8:55 PM 82.4 °F - 24.8 °F 12% 29.60 in 10.0 mi WSW 13.8 mph - N/A   Clear
9:15 PM 80.6 °F - 21.2 °F 11% 29.62 in 10.0 mi SW 9.2 mph - N/A   Clear
9:35 PM 77.0 °F - 19.4 °F 12% 29.62 in 10.0 mi SW 9.2 mph - N/A   Clear
9:55 PM 75.2 °F - 19.4 °F 12% 29.63 in 10.0 mi SW 5.8 mph - N/A   Clear
10:15 PM 73.4 °F - 19.4 °F 13% 29.64 in 10.0 mi ESE 4.6 mph - N/A   Clear
10:35 PM 78.8 °F - 32.0 °F 18% 29.65 in 10.0 mi SE 12.7 mph 20.7 mph N/A   Clear
11:15 PM 80.6 °F - 33.8 °F 18% 29.68 in 10.0 mi South 8.1 mph - N/A   Clear
11:35 PM 80.6 °F - 30.2 °F 16% 29.69 in 10.0 mi NE 4.6 mph - N/A   Clear
11:55 PM 77.0 °F - 33.8 °F 21% 29.69 in 10.0 mi SW 4.6 mph - N/A   Clear